Hourly Weather Yenakievo

Today, 30 September, Wednesday

Time Temperature Precipitation Wind Pressure Humidity
00:00 +17°C° 0 mm 9 mps 742 mmHg 39%
01:00 +16°C° 0 mm 9 mps 742 mmHg 40%
02:00 +15°C° 0 mm 9 mps 742 mmHg 41%
03:00 +13°C° 0 mm 9 mps 742 mmHg 43%
04:00 +13°C° 0 mm 9 mps 741 mmHg 47%
05:00 +12°C° 0 mm 9 mps 741 mmHg 51%
06:00 +11°C° 0 mm 10 mps 741 mmHg 54%
07:00 +12°C° 0 mm 10 mps 741 mmHg 52%
08:00 +13°C° 0 mm 11 mps 741 mmHg 50%
09:00 +14°C° 0 mm 12 mps 741 mmHg 50%
10:00 +15°C° 0 mm 12 mps 741 mmHg 44%
11:00 +18°C° 0 mm 11 mps 741 mmHg 39%
12:00 +21°C° 0 mm 11 mps 741 mmHg 33%
13:00 +22°C° 0 mm 11 mps 740 mmHg 30%
14:00 +22°C° 0 mm 11 mps 740 mmHg 27%
15:00 +23°C° 0 mm 11 mps 740 mmHg 24%
16:00 +23°C° 0 mm 10 mps 740 mmHg 25%
17:00 +22°C° 0 mm 9 mps 740 mmHg 26%
18:00 +22°C° 0 mm 8 mps 740 mmHg 27%
19:00 +21°C° 0.1 mm 9 mps 740 mmHg 30%
20:00 +19°C° 0.1 mm 9 mps 741 mmHg 33%
21:00 +18°C° 0.1 mm 10 mps 741 mmHg 36%
22:00 +17°C° 0 mm 10 mps 741 mmHg 36%
23:00 +17°C° 0 mm 10 mps 741 mmHg 35%

Tomorrow, 1 October, Thursday

Time Temperature Precipitation Wind Pressure Humidity
00:00 +16°C° 0 mm 10 mps 741 mmHg 35%
01:00 +16°C° 0 mm 9 mps 742 mmHg 37%
02:00 +15°C° 0 mm 9 mps 742 mmHg 40%
03:00 +13°C° 0 mm 9 mps 742 mmHg 42%
04:00 +13°C° 0.1 mm 8 mps 742 mmHg 44%
05:00 +13°C° 0.1 mm 8 mps 742 mmHg 47%
06:00 +13°C° 0.1 mm 8 mps 742 mmHg 49%
07:00 +13°C° 0 mm 8 mps 742 mmHg 48%
08:00 +15°C° 0 mm 9 mps 742 mmHg 48%
09:00 +15°C° 0 mm 9 mps 743 mmHg 47%
10:00 +17°C° 0 mm 9 mps 743 mmHg 43%
11:00 +18°C° 0 mm 9 mps 743 mmHg 39%
12:00 +21°C° 0 mm 9 mps 743 mmHg 35%
13:00 +21°C° 0 mm 8 mps 743 mmHg 33%
14:00 +21°C° 0 mm 7 mps 742 mmHg 31%
15:00 +22°C° 0 mm 6 mps 742 mmHg 29%
16:00 +21°C° 0 mm 6 mps 742 mmHg 30%
17:00 +21°C° 0 mm 6 mps 742 mmHg 31%
18:00 +21°C° 0 mm 5 mps 742 mmHg 31%
19:00 +20°C° 0.1 mm 6 mps 742 mmHg 33%
20:00 +18°C° 0.1 mm 7 mps 743 mmHg 35%
21:00 +18°C° 0.1 mm 7 mps 743 mmHg 38%
22:00 +18°C° 0 mm 7 mps 743 mmHg 37%
23:00 +18°C° 0 mm 8 mps 743 mmHg 37%

Day after tomorrow, 2 October, Friday

Time Temperature Precipitation Wind Pressure Humidity
00:00 +17°C° 0 mm 8 mps 743 mmHg 36%
01:00 +17°C° 0 mm 8 mps 743 mmHg 39%
02:00 +16°C° 0 mm 7 mps 743 mmHg 41%
03:00 +15°C° 0 mm 7 mps 743 mmHg 44%
04:00 +15°C° 0 mm 7 mps 743 mmHg 48%
05:00 +14°C° 0 mm 6 mps 743 mmHg 51%
06:00 +13°C° 0 mm 6 mps 744 mmHg 55%
07:00 +14°C° 0 mm 6 mps 744 mmHg 54%
08:00 +15°C° 0 mm 6 mps 744 mmHg 52%
09:00 +15°C° 0 mm 7 mps 744 mmHg 50%
10:00 +17°C° 0 mm 6 mps 745 mmHg 47%
11:00 +19°C° 0 mm 6 mps 745 mmHg 43%
12:00 +21°C° 0 mm 6 mps 745 mmHg 40%
13:00 +21°C° 0 mm 6 mps 745 mmHg 39%
14:00 +22°C° 0 mm 6 mps 745 mmHg 38%
15:00 +23°C° 0 mm 5 mps 745 mmHg 37%
16:00 +22°C° 0 mm 5 mps 745 mmHg 40%
17:00 +21°C° 0 mm 4 mps 745 mmHg 42%
18:00 +19°C° 0 mm 4 mps 745 mmHg 44%
19:00 +18°C° 0 mm 3 mps 745 mmHg 47%
20:00 +17°C° 0 mm 3 mps 746 mmHg 49%
21:00 +16°C° 0 mm 3 mps 746 mmHg 52%
22:00 +16°C° 0 mm 3 mps 746 mmHg 53%
23:00 +14°C° 0 mm 3 mps 746 mmHg 55%

3 October, Saturday

Time Temperature Precipitation Wind Pressure Humidity
00:00 +14°C° 0 mm 3 mps 746 mmHg 57%
01:00 +14°C° 0 mm 3 mps 746 mmHg 58%
02:00 +14°C° 0 mm 4 mps 747 mmHg 60%
03:00 +13°C° 0 mm 4 mps 747 mmHg 61%
04:00 +13°C° 0 mm 4 mps 747 mmHg 69%
05:00 +12°C° 0 mm 4 mps 747 mmHg 76%
06:00 +12°C° 0 mm 4 mps 747 mmHg 83%
07:00 +13°C° 0 mm 5 mps 748 mmHg 76%
08:00 +14°C° 0 mm 5 mps 748 mmHg 69%
09:00 +15°C° 0 mm 5 mps 748 mmHg 61%
10:00 +17°C° 0 mm 5 mps 748 mmHg 57%
11:00 +19°C° 0 mm 5 mps 748 mmHg 52%
12:00 +21°C° 0 mm 4 mps 748 mmHg 48%
13:00 +21°C° 0 mm 4 mps 748 mmHg 45%
14:00 +22°C° 0 mm 4 mps 748 mmHg 41%
15:00 +22°C° 0 mm 4 mps 748 mmHg 38%
16:00 +21°C° 0 mm 3 mps 748 mmHg 40%
17:00 +20°C° 0 mm 3 mps 748 mmHg 41%
18:00 +19°C° 0 mm 3 mps 747 mmHg 43%
19:00 +18°C° 0 mm 3 mps 748 mmHg 43%
20:00 +17°C° 0 mm 3 mps 748 mmHg 43%
21:00 +15°C° 0 mm 4 mps 748 mmHg 43%
22:00 +16°C° 0 mm 3 mps 748 mmHg 45%
23:00 +16°C° 0 mm 3 mps 748 mmHg 48%

4 October, Sunday

Time Temperature Precipitation Wind Pressure Humidity
00:00 +14°C° 0 mm 3 mps 748 mmHg 50%
01:00 +14°C° 0 mm 3 mps 748 mmHg 53%
02:00 +13°C° 0 mm 3 mps 748 mmHg 56%
03:00 +14°C° 0 mm 2 mps 748 mmHg 58%
04:00 +14°C° 0 mm 2 mps 748 mmHg 59%
05:00 +13°C° 0 mm 2 mps 748 mmHg 59%
06:00 +13°C° 0 mm 2 mps 748 mmHg 59%
07:00 +13°C° 0 mm 3 mps 748 mmHg 56%
08:00 +16°C° 0 mm 3 mps 748 mmHg 54%
09:00 +17°C° 0 mm 3 mps 748 mmHg 51%
10:00 +19°C° 0 mm 3 mps 748 mmHg 47%
11:00 +20°C° 0 mm 3 mps 748 mmHg 44%
12:00 +22°C° 0 mm 3 mps 748 mmHg 41%
13:00 +24°C° 0 mm 3 mps 748 mmHg 39%
14:00 +24°C° 0 mm 3 mps 748 mmHg 37%
15:00 +25°C° 0 mm 2 mps 748 mmHg 36%
16:00 +24°C° 0 mm 2 mps 748 mmHg 39%
17:00 +23°C° 0 mm 2 mps 747 mmHg 42%
18:00 +21°C° 0 mm 2 mps 747 mmHg 45%
19:00 +20°C° 0 mm 2 mps 748 mmHg 48%
20:00 +19°C° 0 mm 2 mps 748 mmHg 52%
21:00 +18°C° 0 mm 2 mps 748 mmHg 56%
22:00 +18°C° 0 mm 3 mps 748 mmHg 52%
23:00 +17°C° 0 mm 3 mps 748 mmHg 47%

5 October, Monday

Time Temperature Precipitation Wind Pressure Humidity
00:00 +17°C° 0 mm 3 mps 748 mmHg 43%
01:00 +16°C° 0 mm 3 mps 747 mmHg 44%
02:00 +16°C° 0 mm 3 mps 747 mmHg 45%
03:00 +15°C° 0 mm 2 mps 747 mmHg 46%
04:00 +15°C° 0 mm 2 mps 748 mmHg 47%
05:00 +15°C° 0 mm 2 mps 748 mmHg 47%
06:00 +14°C° 0 mm 2 mps 748 mmHg 48%
07:00 +16°C° 0 mm 2 mps 748 mmHg 44%
08:00 +17°C° 0 mm 3 mps 748 mmHg 40%
09:00 +18°C° 0 mm 3 mps 749 mmHg 36%
10:00 +20°C° 0 mm 4 mps 748 mmHg 33%
11:00 +22°C° 0 mm 4 mps 748 mmHg 31%
12:00 +25°C° 0 mm 4 mps 748 mmHg 29%
13:00 +25°C° 0 mm 4 mps 748 mmHg 29%
14:00 +25°C° 0 mm 4 mps 748 mmHg 29%
15:00 +26°C° 0 mm 4 mps 748 mmHg 28%
16:00 +23°C° 0 mm 4 mps 748 mmHg 31%
17:00 +22°C° 0 mm 3 mps 748 mmHg 34%
18:00 +21°C° 0 mm 3 mps 747 mmHg 37%
19:00 +20°C° 0 mm 3 mps 747 mmHg 39%
20:00 +19°C° 0 mm 4 mps 748 mmHg 41%
21:00 +18°C° 0 mm 4 mps 748 mmHg 43%
22:00 +18°C° 0 mm 4 mps 748 mmHg 38%
23:00 +17°C° 0 mm 4 mps 748 mmHg 33%
Show more